Regional Weather Roundup
Issued by NWS

Home | Current Version | Previous Version | Graphics & Text | Print | Product List | Glossary On
Versions: 1 2 3 4 5 6 7 8 9 10 11 12 13 14 15 16 17 18 19 20 21 22 23 24 25 26 27 28 29 30 31 32 33 34 35 36 37 38 39 40 41 42 43 44 45 46 47 48 49 50
000
ASUS45 KCYS 230910
RWRWY

WYOMING REGIONAL WEATHER ROUNDUP
NATIONAL WEATHER SERVICE CHEYENNE WY
300 AM MDT THU MAR 23 2017

NOTE:  "FAIR" INDICATES FEW OR NO CLOUDS BELOW 12,000 FEET
WITH NO SIGNIFICANT WEATHER AND/OR OBSTRUCTIONS TO VISIBILITY.

WYZ001-231000-
YELLOWSTONE NATIONAL PARK

CITY           SKY/WX    TMP DP  RH WIND       PRES   REMARKS
LK YELLOWSTONE   N/A     30  29  96 CALM      29.84S
W YELLOWSTONE  NOT AVBL

$$
WYZ002>013-054>058-071-098>099-231000-
NORTHERN WYOMING

CITY           SKY/WX    TMP DP  RH WIND       PRES   REMARKS
JACKSON        FAIR      34  34 100 NE8       29.80F WCI  27
CODY           FAIR      46  35  65 N8        29.76F
GREYBULL       MOCLDY    49  42  77 NW7       29.69F
WORLAND        MOCLDY    50  40  68 N5        29.69F
SHERIDAN       FAIR      45  40  82 NW8       29.75S
BUFFALO        CLOUDY    45  38  76 NW10      29.75S
GILLETTE       CLOUDY    50  41  71 W9        29.71F
HULETT         FAIR      50  41  71 CALM      29.71F
NEWCASTLE      FAIR      50  36  57 N14       29.73R

$$
WYZ014>020-022>026-101>103-231000-
CENTRAL WYOMING

CITY           SKY/WX    TMP DP  RH WIND       PRES   REMARKS
BIG PINEY      CLOUDY    34  33  96 CALM      29.79F
PINEDALE       CLOUDY    32  32 100 NW6       29.79F WCI  26
DUBOIS         CLOUDY    34  30  86 NW8       29.76F WCI  27
LANDER         LGT RAIN  44  36  73 E5        29.73F
RIVERTON       LGT RAIN  44  39  82 E6        29.74F
CASPER         FAIR      41  41 100 CALM      29.74F
DOUGLAS        FAIR      44  38  79 N9        29.75F

$$
WYZ021-027>030-104>119-231000-
SOUTHERN WYOMING

CITY           SKY/WX    TMP DP  RH WIND       PRES   REMARKS
EVANSTON       CLOUDY    37  34  89 E12       29.75F WCI  29
KEMMERER       DRIZZLE   34  32  93 NE12      29.77F WCI  25
FORT BRIDGER   CLOUDY    38  38 100 NE13      29.79F WCI  30
ROCK SPRINGS   LGT RAIN  38  35  89 SE8       29.79F WCI  32
DIXON            N/A     42  33  71 N6        29.83F
RAWLINS        FAIR      44  33  65 S9        29.79F
SARATOGA       FAIR      41  32  70 S8        29.81F
LARAMIE        FAIR      38  24  57 N6        29.79S WCI  33
CHEYENNE       FAIR      43  36  76 NW5       29.74F
TORRINGTON     FAIR      46  37  71 E10       29.70F
PINE BLUFFS    FAIR      39  34  81 W9        29.73F WCI  33

$$



USA.gov is the U.S. government's official web portal to all federal, state and local government web resources and services.